When you browse on this site, cookies collect data to enhance your experience and personalize the content and advertising you see.
Visit our Privacy Policy to learn more. By continuing to use the site, you agree to this use of cookies and data.
  • In Romania
  • List of Countries
  • For 7 days
  • Water Temperature
  • Weather Map
  • Weather Widgets
  • user-avatar
    Login

    Hourly Weather Bujumbura

    Today, 20 January, Monday

    Time Temperature Precipitation Wind Pressure Humidity
    00:00 +21°C° 0 mm 0 mps 692 mmHg 86%
    01:00 +21°C° 0 mm 0 mps 692 mmHg 87%
    02:00 +23°C° 0 mm 1 mps 692 mmHg 89%
    03:00 +23°C° 0 mm 1 mps 692 mmHg 89%
    04:00 +23°C° 0 mm 1 mps 692 mmHg 90%
    05:00 +23°C° 0 mm 1 mps 692 mmHg 90%
    06:00 +24°C° 0 mm 1 mps 693 mmHg 86%
    07:00 +25°C° 0 mm 1 mps 693 mmHg 83%
    08:00 +27°C° 0 mm 1 mps 694 mmHg 79%
    09:00 +28°C° 0.1 mm 1 mps 694 mmHg 76%
    10:00 +29°C° 0.1 mm 1 mps 693 mmHg 73%
    11:00 +31°C° 0.1 mm 1 mps 693 mmHg 69%
    12:00 +30°C° 0.9 mm 1 mps 692 mmHg 71%
    13:00 +30°C° 0.9 mm 2 mps 691 mmHg 72%
    14:00 +30°C° 0.9 mm 2 mps 691 mmHg 74%
    15:00 +30°C° 0.5 mm 2 mps 690 mmHg 77%
    16:00 +29°C° 0.5 mm 2 mps 690 mmHg 81%
    17:00 +28°C° 0.5 mm 2 mps 689 mmHg 84%
    18:00 +27°C° 0 mm 2 mps 690 mmHg 85%
    19:00 +26°C° 0 mm 1 mps 691 mmHg 86%
    20:00 +25°C° 0 mm 1 mps 691 mmHg 87%
    21:00 +25°C° 0 mm 1 mps 692 mmHg 86%
    22:00 +25°C° 0 mm 1 mps 692 mmHg 85%
    23:00 +25°C° 0 mm 1 mps 692 mmHg 85%

    Tomorrow, 21 January, Tuesday

    Time Temperature Precipitation Wind Pressure Humidity
    00:00 +25°C° 0.2 mm 1 mps 692 mmHg 86%
    01:00 +25°C° 0.2 mm 1 mps 692 mmHg 87%
    02:00 +25°C° 0.2 mm 1 mps 692 mmHg 88%
    03:00 +25°C° 0.8 mm 1 mps 692 mmHg 90%
    04:00 +25°C° 0.8 mm 1 mps 692 mmHg 91%
    05:00 +24°C° 0.8 mm 1 mps 691 mmHg 92%
    06:00 +24°C° 0.6 mm 1 mps 692 mmHg 92%
    07:00 +25°C° 0.6 mm 1 mps 692 mmHg 92%
    08:00 +25°C° 0.6 mm 1 mps 693 mmHg 92%
    09:00 +25°C° 0.5 mm 1 mps 693 mmHg 91%
    10:00 +25°C° 0.5 mm 1 mps 693 mmHg 91%
    11:00 +25°C° 0.5 mm 1 mps 692 mmHg 91%
    12:00 +26°C° 0.2 mm 1 mps 692 mmHg 87%
    13:00 +26°C° 0.2 mm 1 mps 691 mmHg 83%
    14:00 +27°C° 0.2 mm 1 mps 690 mmHg 79%
    15:00 +27°C° 0 mm 1 mps 690 mmHg 78%
    16:00 +27°C° 0 mm 1 mps 690 mmHg 76%
    17:00 +27°C° 0 mm 1 mps 689 mmHg 74%
    18:00 +26°C° 0 mm 1 mps 690 mmHg 73%
    19:00 +26°C° 0 mm 1 mps 691 mmHg 72%
    20:00 +25°C° 0 mm 1 mps 691 mmHg 72%
    21:00 +24°C° 0 mm 1 mps 691 mmHg 72%
    22:00 +24°C° 0 mm 1 mps 692 mmHg 73%
    23:00 +22°C° 0 mm 0 mps 692 mmHg 73%

    Day after tomorrow, 22 January, Wednesday

    Time Temperature Precipitation Wind Pressure Humidity
    00:00 +24°C° 0 mm 1 mps 692 mmHg 74%
    01:00 +24°C° 0 mm 1 mps 692 mmHg 75%
    02:00 +24°C° 0 mm 1 mps 691 mmHg 75%
    03:00 +24°C° 0 mm 1 mps 691 mmHg 75%
    04:00 +24°C° 0 mm 1 mps 691 mmHg 75%
    05:00 +24°C° 0 mm 1 mps 691 mmHg 75%
    06:00 +25°C° 0 mm 1 mps 692 mmHg 76%
    07:00 +25°C° 0 mm 1 mps 692 mmHg 76%
    08:00 +26°C° 0 mm 1 mps 692 mmHg 77%
    09:00 +26°C° 0.1 mm 1 mps 692 mmHg 77%
    10:00 +26°C° 0.1 mm 1 mps 692 mmHg 78%
    11:00 +27°C° 0.1 mm 1 mps 692 mmHg 78%
    12:00 +28°C° 0.1 mm 1 mps 691 mmHg 71%
    13:00 +30°C° 0.1 mm 1 mps 691 mmHg 63%
    14:00 +32°C° 0.1 mm 1 mps 690 mmHg 55%
    15:00 +31°C° 0.1 mm 1 mps 690 mmHg 60%
    16:00 +30°C° 0.1 mm 1 mps 689 mmHg 64%
    17:00 +30°C° 0.1 mm 1 mps 689 mmHg 69%
    18:00 +28°C° 0.1 mm 1 mps 690 mmHg 72%
    19:00 +27°C° 0.1 mm 1 mps 691 mmHg 75%
    20:00 +26°C° 0.1 mm 1 mps 691 mmHg 79%
    21:00 +25°C° 0.1 mm 1 mps 692 mmHg 80%
    22:00 +25°C° 0.1 mm 1 mps 692 mmHg 81%
    23:00 +25°C° 0.1 mm 1 mps 692 mmHg 83%

    23 January, Thursday

    Time Temperature Precipitation Wind Pressure Humidity
    00:00 +24°C° 0.1 mm 1 mps 692 mmHg 83%
    01:00 +24°C° 0.1 mm 1 mps 692 mmHg 83%
    02:00 +24°C° 0.1 mm 1 mps 691 mmHg 84%
    03:00 +24°C° 0 mm 1 mps 691 mmHg 84%
    04:00 +24°C° 0 mm 1 mps 691 mmHg 85%
    05:00 +24°C° 0 mm 1 mps 692 mmHg 86%
    06:00 +24°C° 0 mm 1 mps 692 mmHg 83%
    07:00 +25°C° 0 mm 1 mps 693 mmHg 81%
    08:00 +26°C° 0 mm 1 mps 693 mmHg 79%
    09:00 +28°C° 0 mm 1 mps 693 mmHg 73%
    10:00 +29°C° 0 mm 1 mps 693 mmHg 66%
    11:00 +31°C° 0 mm 1 mps 692 mmHg 60%
    12:00 +31°C° 0.1 mm 1 mps 692 mmHg 58%
    13:00 +32°C° 0.1 mm 2 mps 691 mmHg 57%
    14:00 +32°C° 0.1 mm 2 mps 690 mmHg 56%
    15:00 +31°C° 0.3 mm 2 mps 690 mmHg 62%
    16:00 +30°C° 0.3 mm 3 mps 690 mmHg 69%
    17:00 +29°C° 0.3 mm 3 mps 689 mmHg 76%
    18:00 +28°C° 0.1 mm 3 mps 690 mmHg 78%
    19:00 +27°C° 0.1 mm 2 mps 691 mmHg 80%
    20:00 +26°C° 0.1 mm 2 mps 692 mmHg 82%
    21:00 +26°C° 0.2 mm 2 mps 692 mmHg 83%
    22:00 +25°C° 0.2 mm 1 mps 692 mmHg 84%
    23:00 +25°C° 0.2 mm 1 mps 693 mmHg 85%

    24 January, Friday

    Time Temperature Precipitation Wind Pressure Humidity
    00:00 +25°C° 0.4 mm 1 mps 692 mmHg 85%
    01:00 +25°C° 0.4 mm 1 mps 692 mmHg 86%
    02:00 +24°C° 0.4 mm 1 mps 692 mmHg 86%
    03:00 +24°C° 0.2 mm 1 mps 692 mmHg 86%
    04:00 +24°C° 0.2 mm 1 mps 692 mmHg 87%
    05:00 +24°C° 0.2 mm 1 mps 692 mmHg 87%
    06:00 +25°C° 0 mm 1 mps 692 mmHg 86%
    07:00 +25°C° 0 mm 1 mps 693 mmHg 86%
    08:00 +23°C° 0 mm 0 mps 693 mmHg 85%
    09:00 +24°C° 0 mm 0 mps 693 mmHg 83%
    10:00 +25°C° 0 mm 0 mps 693 mmHg 81%
    11:00 +25°C° 0 mm 0 mps 693 mmHg 78%
    12:00 +28°C° 0 mm 1 mps 692 mmHg 73%
    13:00 +29°C° 0 mm 1 mps 691 mmHg 67%
    14:00 +30°C° 0 mm 1 mps 690 mmHg 62%
    15:00 +30°C° 0.2 mm 1 mps 690 mmHg 67%
    16:00 +29°C° 0.2 mm 1 mps 690 mmHg 72%
    17:00 +29°C° 0.2 mm 2 mps 689 mmHg 77%
    18:00 +27°C° 0.1 mm 1 mps 690 mmHg 79%
    19:00 +26°C° 0.1 mm 1 mps 691 mmHg 81%
    20:00 +25°C° 0.1 mm 1 mps 691 mmHg 83%
    21:00 +25°C° 0 mm 1 mps 692 mmHg 82%
    22:00 +25°C° 0 mm 1 mps 692 mmHg 81%
    23:00 +23°C° 0 mm 0 mps 693 mmHg 80%

    25 January, Saturday

    Time Temperature Precipitation Wind Pressure Humidity
    00:00 +23°C° 0.1 mm 0 mps 692 mmHg 81%
    01:00 +23°C° 0.1 mm 0 mps 692 mmHg 82%
    02:00 +25°C° 0.1 mm 1 mps 692 mmHg 83%
    03:00 +24°C° 0.2 mm 1 mps 692 mmHg 84%
    04:00 +24°C° 0.2 mm 1 mps 692 mmHg 84%
    05:00 +24°C° 0.2 mm 1 mps 692 mmHg 85%
    06:00 +24°C° 0.1 mm 1 mps 692 mmHg 84%
    07:00 +25°C° 0.1 mm 1 mps 693 mmHg 84%
    08:00 +25°C° 0.1 mm 1 mps 693 mmHg 83%
    09:00 +26°C° 0.1 mm 1 mps 693 mmHg 78%
    10:00 +28°C° 0.1 mm 1 mps 693 mmHg 73%
    11:00 +29°C° 0.1 mm 1 mps 693 mmHg 68%
    12:00 +30°C° 0 mm 1 mps 692 mmHg 63%
    13:00 +31°C° 0 mm 1 mps 691 mmHg 59%
    14:00 +32°C° 0 mm 1 mps 690 mmHg 54%
    15:00 +32°C° 0.1 mm 1 mps 690 mmHg 59%
    16:00 +31°C° 0.1 mm 1 mps 690 mmHg 64%
    17:00 +30°C° 0.1 mm 1 mps 689 mmHg 69%
    18:00 +29°C° 0.1 mm 2 mps 690 mmHg 73%
    19:00 +27°C° 0.1 mm 2 mps 691 mmHg 77%
    20:00 +26°C° 0.1 mm 3 mps 691 mmHg 81%
    21:00 +25°C° 0.2 mm 2 mps 692 mmHg 82%
    22:00 +25°C° 0.2 mm 2 mps 692 mmHg 83%
    23:00 +25°C° 0.2 mm 1 mps 693 mmHg 84%
    Show more